Location: �quirre
(50.4736°N, 2.2351°E)
Time: 07:54:38
(UTC+00:00)

SL-19 R/B - Pass Details

Date: 07 August 2020
Orbit: 795 x 1010 km, 99.4° (Epoch: 26 September)

Event Time Altitude Azimuth Distance (km) Brightness Sun altitude
Rises 01:31:15 0° 14° (NNE) 3,685 9.0 -20.1°
Reaches altitude 10° 01:33:47 10° 12° (NNE) 2,709 8.0 -19.9°
Maximum altitude 01:39:48 69° 291° (WNW) 988 4.5 -19.5°
Enters shadow 01:42:24 34° 218° (SW) 1,462 4.9 -19.3°
